User: anonymous   Login
Location: Homewood
(41.1836°S, 175.9581°E)
Time: 11:58:01
(UTC+00:00)
Language:

Cosmos 1733 Rocket - Orbit

View from above orbital plane
View from above orbital plane
View from above satellite
View from above satellite

Ground track
Ground track

The orbit data is extracted from the following two-line orbital elements,

1 16612U 86018B   24171.75001203  .00000577  00000-0  63967-4 0  9996
2 16612  82.5168  54.0042 0016839 347.0780  13.0002 14.85460929950074
Epoch (UTC): 19 June 2024 18:00:01
Eccentricity: 0.0016839
inclination: 82.5168°
perigee height: 600 km
apogee height: 624 km
right ascension of ascending node: 54.0042°
argument of perigee: 347.0780°
revolutions per day: 14.85460929
mean anomaly at epoch: 13.0002°
orbit number at epoch: 95007

The dashed part of the orbit path shows where the satellite is in the earth's shadow,  

DLR